Location: Tauranga
(37.6860°S, 176.1670°E)
Time: 10:12:29
(UTC+13:00)

Cosmos 2228 Rocket - Pass Details

Date: 24 January 2019
Orbit: 617 x 653 km, 82.5° (Epoch: 20 October)

Event Time Altitude Azimuth Distance (km) Brightness Sun altitude
Exits shadow 21:12:00 - 30° (NNE) 2,353 5.5 -7.4°
Reaches altitude 10° 21:13:04 10° 37° (NE) 1,987 5.1 -7.5°
Maximum altitude 21:16:39 25° 91° (E) 1,275 4.2 -8.1°
Drops below altitude 10° 21:20:16 10° 146° (SE) 2,014 5.7 -8.7°
Sets 21:22:50 0° 159° (SSE) 2,932 6.7 -9.2°
